Location: Bailleul
(50.3375°N, 2.8513°E)
Time: 05:20:25
(UTC+00:00)

Cosmos 2263 Rocket - Pass Details

Date: 19 April 2021
Orbit: 824 x 848 km, 71.0° (Epoch: 09 May)

Event Time Altitude Azimuth Distance (km) Brightness Sun altitude
Exits shadow 21:25:57 15° 80° (E) 2,081 4.0 -20.9°
Drops below altitude 10° 21:27:52 10° 60° (ENE) 2,433 4.5 -21.1°
Sets 21:31:08 0° 41° (NE) 3,374 5.5 -21.4°
